Location: Caltech
(34.1382°N, 118.1253°W)
Time: 20:09:50
(UTC-07:00)

Iridium 59 - Visible Passes

Search period start: 29 August 2016 00:00
Search period end: 08 September 2016 00:00
Orbit: 776 x 779 km, 86.4° (Epoch: 29 August)

Date Brightness Start Highest point End Pass type
(mag) Time Alt. Az. Time Alt. Az. Time Alt. Az.
29 Aug 7.9 04:29:24 10° ESE 04:32:20 15° E 04:35:15 10° NE visible
30 Aug 5.1 05:33:48 10° S 05:39:00 86° E 05:44:14 10° N visible
31 Aug 6.2 05:00:40 10° SSE 05:05:34 43° E 05:10:30 10° NNE visible
01 Sep 7.4 04:28:16 10° SE 04:32:16 23° E 04:36:16 10° NNE visible
02 Sep 8.0 03:57:25 10° E 03:59:04 11° ENE 04:00:43 10° ENE visible
02 Sep 5.0 05:33:58 10° SSW 05:39:07 64° W 05:44:18 10° N visible
03 Sep 5.4 05:00:28 10° S 05:05:36 66° E 05:10:47 10° N visible
04 Sep 6.6 04:27:36 10° SSE 04:32:14 33° E 04:36:53 10° NNE visible
05 Sep 7.6 03:55:36 10° ESE 03:58:58 18° E 04:02:21 10° NE visible
05 Sep 5.4 05:34:21 10° SSW 05:39:15 42° W 05:44:13 10° NNW visible
06 Sep 4.9 05:00:30 10° S 05:05:42 83° W 05:10:57 10° N visible
07 Sep 5.8 04:27:15 10° SSE 04:32:15 50° E 04:37:17 10° NNE visible
